Mattaponi, VA

8:28 PM EST on February 26, 2017 (GMT -0500)
West Point

Weather History for KFYJ - May, 2014

Change the Weather History Date:

Friday, May 30, 2014

  Actual Average (KJGG) Record (KJGG)
Temperature  
Mean Temperature 64 °F -  
Max Temperature 71 °F 80 °F 96 °F (1969)
Min Temperature 58 °F 59 °F 46 °F (1964)
Growing Degree Days 14 (Base 50)    
Moisture  
Dew Point 59 °F    
Average Humidity 83    
Maximum Humidity 91    
Minimum Humidity 59    
Precipitation  
Precipitation 0.01 in - - ()
Sea Level Pressure  
Sea Level Pressure 30.13 in    
Wind  
Wind Speed 2 mph (NE)    
Max Wind Speed 8 mph    
Max Gust Speed -    
Visibility 8 miles    
Events      
Averages and records for this station are not official NWS values.
T = Trace of Precipitation, MM = Missing Value Source: NWS Daily Summary

Daily Weather History Graph

Daily Weather History Graph

Search for Another Location

Airport or City:

Trip Planner

Search our weather history database for the weather conditions in past years. The results will help you decide how hot, cold, wet, or windy it might be!

Date:

Astronomy

May. 30, 2014 Rise Set
Actual Time 5:48 AM EDT 8:21 PM EDT
Civil Twilight 5:17 AM EDT 8:51 PM EDT
Nautical Twilight 4:40 AM EDT 9:29 PM EDT
Astronomical Twilight 3:58 AM EDT 10:11 PM EDT
Moon 7:29 AM EDT (5/30) 9:57 PM EDT (5/30)
Length of Visible Light 15h 33m
Length of Day
14h 32m
Waxing Crescent, 4% of the Moon is Illuminated
May 30
Waxing Crescent
Jun 5
First Quarter
Jun 13
Full
Jun 19
Last Quarter
Jun 27
New

Hourly Weather History & Observations

Time (EDT) Temp. Dew Point Humidity Pressure Visibility Wind Dir Wind Speed Gust Speed Precip Events Conditions
12:15 AM 63.1 °F 58.6 °F 85% 30.15 in 10.0 mi Calm Calm - N/A   Overcast
12:35 AM 63.0 °F 58.5 °F 85% 30.15 in 10.0 mi Calm Calm - N/A   Overcast
12:55 AM 63.0 °F 59.0 °F 87% 30.14 in 10.0 mi Calm Calm - N/A   Overcast
1:15 AM 63.1 °F 59.0 °F 86% 30.13 in 10.0 mi East 4.6 mph - N/A   Overcast
1:35 AM 63.0 °F 59.0 °F 87% 30.14 in 10.0 mi Calm Calm - N/A   Overcast
1:55 AM 63.1 °F 59.2 °F 87% 30.13 in 10.0 mi East 3.5 mph - N/A   Overcast
2:15 AM 63.1 °F 59.2 °F 87% 30.12 in 10.0 mi East 4.6 mph - N/A   Overcast
2:35 AM 63.1 °F 59.2 °F 87% 30.11 in 10.0 mi East 3.5 mph - N/A   Overcast
2:55 AM 63.1 °F 59.2 °F 87% 30.11 in 10.0 mi East 4.6 mph - N/A   Overcast
3:15 AM 63.1 °F 59.2 °F 87% 30.11 in 7.0 mi East 3.5 mph - N/A   Overcast
3:35 AM 63.0 °F 59.2 °F 87% 30.11 in 7.0 mi Calm Calm - N/A   Overcast
3:55 AM 63.0 °F 59.2 °F 87% 30.11 in 7.0 mi Calm Calm - N/A   Overcast
4:15 AM 62.8 °F 59.2 °F 88% 30.11 in 5.0 mi NE 3.5 mph - N/A   Overcast
4:35 AM 62.8 °F 59.4 °F 89% 30.10 in 5.0 mi ENE 3.5 mph - N/A   Overcast
4:55 AM 62.8 °F 59.4 °F 89% 30.10 in 5.0 mi Calm Calm - N/A   Overcast
5:15 AM 62.8 °F 59.5 °F 89% 30.10 in 5.0 mi Calm Calm - N/A   Overcast
5:35 AM 62.8 °F 59.7 °F 90% 30.11 in 5.0 mi NE 3.5 mph - N/A   Overcast
5:55 AM 62.8 °F 59.9 °F 90% 30.11 in 4.0 mi Calm Calm - N/A   Overcast
6:15 AM 62.8 °F 59.9 °F 90% 30.11 in 1.2 mi Calm Calm - N/A   Overcast
6:35 AM 62.8 °F 60.1 °F 91% 30.11 in 1.0 mi Calm Calm - N/A   Overcast
6:55 AM 63.0 °F 60.3 °F 91% 30.12 in 1.2 mi Calm Calm - 0.01 in   Overcast
7:15 AM 63.5 °F 60.8 °F 91% 30.11 in 3.0 mi Calm Calm - N/A   Overcast
7:35 AM 63.5 °F 61.0 °F 91% 30.11 in 7.0 mi Calm Calm - N/A   Overcast
7:55 AM 63.7 °F 61.0 °F 91% 30.10 in 10.0 mi Calm Calm - N/A   Overcast
8:15 AM 64.2 °F 61.3 °F 90% 30.11 in 10.0 mi Calm Calm - N/A   Overcast
8:35 AM 64.6 °F 61.7 °F 90% 30.11 in 10.0 mi NE 3.5 mph - N/A   Overcast
8:55 AM 64.8 °F 61.7 °F 90% 30.12 in 10.0 mi NE 3.5 mph - N/A   Overcast
9:15 AM 65.1 °F 61.7 °F 89% 30.13 in 10.0 mi NE 3.5 mph - N/A   Overcast
9:35 AM 64.6 °F 61.2 °F 89% 30.13 in 10.0 mi NNE 3.5 mph - N/A   Overcast
9:55 AM 64.8 °F 61.5 °F 89% 30.13 in 10.0 mi NNE 3.5 mph - N/A   Overcast
10:15 AM 64.8 °F 61.3 °F 89% 30.14 in 2.0 mi NE 4.6 mph - N/A   Overcast
10:35 AM 65.1 °F 61.7 °F 89% 30.15 in 4.0 mi NE 4.6 mph - N/A   Overcast
10:55 AM 65.3 °F 61.9 °F 89% 30.15 in 4.0 mi ENE 4.6 mph - N/A   Overcast
11:15 AM 64.9 °F 61.5 °F 89% 30.15 in 7.0 mi NE 4.6 mph - N/A   Overcast
11:35 AM 66.2 °F 62.4 °F 88% 30.16 in 10.0 mi NE 4.6 mph - N/A   Overcast
11:55 AM 67.5 °F 61.7 °F 82% 30.16 in 10.0 mi NNE 5.8 mph - N/A   Overcast
12:15 PM 67.1 °F 61.2 °F 81% 30.16 in 10.0 mi Calm Calm - N/A   Overcast
12:35 PM 67.1 °F 60.4 °F 79% 30.15 in 10.0 mi Calm Calm - N/A   Overcast
12:55 PM 68.0 °F 60.8 °F 78% 30.15 in 10.0 mi Calm Calm - N/A   Overcast
1:15 PM 66.7 °F 60.4 °F 80% 30.15 in 7.0 mi Calm Calm - N/A   Overcast
1:35 PM 67.6 °F 61.0 °F 79% 30.15 in 10.0 mi NNE 3.5 mph - N/A   Overcast
1:55 PM 67.3 °F 59.7 °F 77% 30.15 in 10.0 mi NNE 3.5 mph - N/A   Overcast
2:15 PM 68.0 °F 59.5 °F 74% 30.15 in 10.0 mi North 4.6 mph - N/A   Overcast
2:35 PM 69.1 °F 59.5 °F 72% 30.15 in 10.0 mi NNE 8.1 mph - N/A   Overcast
2:55 PM 69.3 °F 58.6 °F 69% 30.14 in 10.0 mi NE 4.6 mph - N/A   Overcast
3:15 PM 70.0 °F 59.4 °F 69% 30.14 in 10.0 mi Calm Calm - N/A   Overcast
3:35 PM 69.1 °F 58.1 °F 68% 30.14 in 10.0 mi NNW 4.6 mph - N/A   Overcast
3:55 PM 69.8 °F 57.0 °F 64% 30.13 in 7.0 mi Calm Calm - N/A   Overcast
4:15 PM 69.8 °F 56.8 °F 63% 30.13 in 10.0 mi Calm Calm - N/A   Overcast
5:15 PM 70.7 °F 58.3 °F 65% 30.12 in 10.0 mi Calm Calm - N/A   Overcast
5:35 PM 71.1 °F 58.1 °F 63% 30.11 in 10.0 mi Calm Calm - N/A   Overcast
5:55 PM 71.2 °F 56.8 °F 60% 30.12 in 10.0 mi Calm Calm - N/A   Overcast
6:35 PM 71.2 °F 56.3 °F 59% 30.11 in 10.0 mi Calm Calm - N/A   Overcast
6:55 PM 70.9 °F 56.3 °F 60% 30.11 in 10.0 mi Calm Calm - N/A   Mostly Cloudy
7:15 PM 70.3 °F 57.6 °F 64% 30.12 in 10.0 mi Calm Calm - N/A   Scattered Clouds
7:35 PM 69.3 °F 58.8 °F 69% 30.12 in 10.0 mi Calm Calm - N/A   Clear
7:55 PM 67.6 °F 59.9 °F 76% 30.12 in 10.0 mi Calm Calm - N/A   Clear
8:15 PM 65.3 °F 59.9 °F 83% 30.13 in 10.0 mi Calm Calm - N/A   Clear
8:35 PM 64.4 °F 60.1 °F 86% 30.13 in 10.0 mi Calm Calm - N/A   Clear
8:55 PM 63.5 °F 59.5 °F 87% 30.13 in 10.0 mi Calm Calm - N/A   Clear
9:15 PM 61.2 °F 57.4 °F 87% 30.13 in 7.0 mi Calm Calm - N/A   Clear
9:55 PM 61.7 °F 58.6 °F 90% 30.13 in 10.0 mi Calm Calm - N/A   Clear
10:15 PM 60.6 °F 57.6 °F 90% 30.13 in 7.0 mi Calm Calm - N/A   Clear
10:35 PM 59.9 °F 57.2 °F 91% 30.14 in 3.0 mi Calm Calm - N/A   Clear
10:55 PM 59.0 °F 56.3 °F 91% 30.14 in 5.0 mi Calm Calm - N/A   Clear
11:15 PM 59.0 °F 56.3 °F 91% 30.14 in 3.0 mi Calm Calm - N/A   Clear
11:35 PM 58.3 °F 55.8 °F 91% 30.14 in 7.0 mi Calm Calm - N/A   Clear
11:55 PM 58.1 °F 55.6 °F 91% 30.14 in 7.0 mi Calm Calm - N/A   Clear